User: anonymous   Login
Location: Brabourne
(51.1333°N, 1.0000°E)
Time: 12:09:26
(UTC+00:00)
Language:

USA 306 - Orbit

View from above orbital plane
View from above orbital plane
View from above satellite
View from above satellite

Ground track
Ground track

The orbit data is extracted from the following two-line orbital elements,

1 45874U 20046B   21264.78843279 0.00003000  00000-0  24165-3 0    00
2 45874  53.9820 206.1885 0006548  30.7544 329.2455 14.99469926    02
Epoch (UTC): 21 September 2021 18:55:20
Eccentricity: 0.0006548
inclination: 53.9820°
perigee height: 564 km
apogee height: 573 km
right ascension of ascending node: 206.1885°
argument of perigee: 30.7544°
revolutions per day: 14.99469926
mean anomaly at epoch: 329.2455°
orbit number at epoch: 0

The dashed part of the orbit path shows where the satellite is in the earth's shadow,  

DLR